PulseSat

PulseSat

MOLNIYA 1-49

Last updated on Feb. 17, 2019, 3:06 a.m. UTC

1 12156U 81009A   19047.41898837 -.00000547  00000-0 -25592-2 0  9995
2 12156  63.1684 348.2781 7248328 247.9156  25.0697  2.05708662196489
UTC
Height (km)
Latitude
Longitude
Inclination
Orbital Period

Next 30 passes for location: Hong Kong

Rise time Rise Azimuth (degrees) Set time Set Azimuth (degrees) Duration Max altitude (degrees)

No matching passes for this satellites

PulseSat

PulseSat is the new satellites software and hardware trackering solution by Pulsely.
Satellite Two Line Element Set source: US Air Force Space Command

Download PulseSat for iOS
© 2017 Pulsely Limited